星链-11096 [DTC] (STARLINK-11096 [DTC] )

导读 | 豆包AI

STARLINK-11096是美国SpaceX星链星座的一员,于2024年5月10日发射入轨,属于星链互联网卫星集群。它依托可折叠卫星设计与猎鹰系列火箭运力,为全球提供低延迟宽带互联网服务,补充星链近地轨道卫星布局,提升覆盖密度与服务容量,强化星座在偏远地区、移动场景的网络支持能力。

基本信息
目录编号:
59719
目录名称:
STARLINK-11096
国际标识:
2024-088M
轨道中心:
EARTH
卫星名称:
星链-11096 [DTC]
卫星全名:
星链-11096 [DTC] (STARLINK-11096 [DTC] )
卫星状态:
在轨 (已飞行721 天)
发射日期:
2024-05-10 UTC
国别 :
美国 (US)
星等 :
--
轨道信息
数据来源 国际轨道数据
星历时间: 2026-05-01T14:10:29+0800
10小时前
查看轨道信息
半长轴: 6737.864km
偏心率: 0.0000932
轨道倾角: 53.159°
近地点辐角 101.591°
升交点赤经 67.488°
平近点角 258.522°
近地点: 359.099km
远地点: 360.355km
周期: 91.737分钟
每日圈数: 15.6971
详细信息
固有亮度:
5
最大亮度:
0.6
卫星平台:
Starlink v2.0 mini
覆盖范围:
全球
运营商:
太空探索技术公司
运营商所在国:
美国
制造商(研发单位):
太空探索技术公司
制造商所在国:
美国
使用方式:
暂无
卫星简介
星链(Starlink)计划是由太空探索技术公司(SpaceX)提出的一个巨型低轨卫星互联网星座项目,计划在2019年至2024年间在太空搭建由约1.2万颗卫星组成的“星链”网络,其中1584颗将部署在地球上空550千米处的近地轨道,并从2020年开始工作。该卫星仍在工作。
2D轨道图
3D轨道图
轨道高度分析图
轨道倾角分析图
轨道综合分析图
查看轨道综合分析图